Flag for United Kingdom Weather past 2 weeks in Bangor, Wales, United Kingdom

Now
48 °F

Cool.


Feels Like: 45 °F
Forecast: 53 / 61 °F
Wind: 6 mph from Southwest

Location: Capel Curig

Current Time: Aug 20, 2014 at 6:07:39 AM

Latest Report: Aug 20, 2014 at 5:00 AM


Visibility: 31 mi

Pressure: 30.06 "Hg

Humidity: 84%

Dew point: 43 °F

Location of BangorLocation

Historic Weather in Bangor — Graph

°F

Bangor temperature yesterday

Maximum temperature yesterday: 57 °F (at 5:00 PM)
Minimum temperature yesterday: 48 °F (at 4:00 AM)
Average temperature yesterday: 52 °F

Past Weeks' High & Low Weather Summary

 TemperatureHumidityPressure
High67 °F (Aug 8, 4:00 PM)100% (Aug 5, 4:00 AM)30.19 "Hg (Aug 5, 4:00 AM)
Low46 °F (Aug 5, 4:00 AM)45% (Aug 7, 2:00 PM)29.32 "Hg (Aug 10, 11:00 AM)
Average56 °F79%29.85 "Hg
* Reported Aug 5 4:00 AM — Aug 20 4:00 AM, Bangor, Weather by CustomWeather, © 2014

Note: Actual official high and low records may vary slightly from our data, if they occured in-between our weather recording intervals... More about our weather records

Advertising

Bangor weather history for previous 24 hours

 ConditionsComfort  
Time TempWeatherWind HumidityBarometerVisibility
4:00 AM
Aug 20
50 °FCool.9 mph75%30.06 "Hg25 mi
3:00 AM49 °FCool.2 mph81%30.06 "Hg31 mi
2:00 AM49 °FRain showers. Overcast.5 mph82%30.06 "Hg9 mi
1:00 AM50 °FCool.9 mph78%30.06 "Hg19 mi
12:00 AM49 °FCool.5 mph83%30.06 "Hg22 mi
11:00 PM
Aug 19
52 °FCool.7 mph72%30.06 "Hg25 mi
10:00 PM51 °FCool.7 mph80%30.05 "Hg22 mi
9:00 PM52 °FCool.7 mph71%30.04 "Hg28 mi
8:00 PM52 °FCool.3 mph70%30.03 "Hg28 mi
7:00 PM53 °FCool.8 mph66%30.02 "Hg28 mi
6:00 PM55 °FCool.7 mph65%30.01 "Hg28 mi
5:00 PM57 °FCool.5 mph63%29.99 "Hg28 mi
4:00 PM54 °FCool.6 mph62%29.99 "Hg19 mi
3:00 PM54 °FLots of rain. Cloudy.7 mph69%29.99 "Hg16 mi
2:00 PM54 °FCool.9 mph66%29.98 "Hg16 mi
1:00 PM56 °FCool.8 mph65%29.96 "Hg22 mi
12:00 PM54 °FCool.6 mph70%29.96 "Hg19 mi
11:00 AM51 °FLots of rain. Cloudy.5 mph75%29.95 "Hg19 mi
10:00 AM52 °FCool.7 mph70%29.94 "Hg31 mi
9:00 AM50 °FCool.7 mph76%29.93 "Hg25 mi
8:00 AM49 °FCool.9 mph79%29.92 "Hg22 mi
7:00 AM49 °FCool.17 mph77%29.91 "Hg5 mi
6:00 AM50 °FCool.16 mph74%29.90 "Hg31 mi
Weather by CustomWeather, © 2014

See weather overviewHow to use our weather pages